DW4362 Weather Reports


time (UTC)temp
C
wind
direction
speed
KPH
gust
KPH
rain 1hr
cm
rain 24hr
cm
rain mn
cm
humidity
%
barometer
mb
20260510154642 27 6 0.0 0.0 0.00 0.84 0.03 71 1015.8
20260510153141 27 151 0.0 8.0 0.00 1.22 0.03 70 1015.9
20260510151641 26 200 0.0 0.0 0.00 2.06 0.03 76 1016.0
20260510150141 25 193 3.2 3.2 0.00 2.77 0.03 81 1016.1
20260510144640 23 185 0.0 0.0 0.00 2.92 0.03 86 1016.2
20260510143141 23 15 0.0 3.2 0.00 2.92 0.03 88 1016.2
20260510141640 22 42 4.8 4.8 0.00 2.92 0.03 92 1016.2
20260510140140 22 191 0.0 0.0 0.00 3.00 0.03 95 1016.0
20260510134640 21 21 0.0 3.2 0.00 3.00 0.03 94 1015.8
20260510133139 20 345 0.0 0.0 0.00 3.05 0.03 95 1015.7
20260510131639 20 79 0.0 0.0 0.00 3.10 0.03 95 1015.7
20260510130139 19 79 0.0 0.0 0.00 3.12 0.03 95 1015.6
20260510124638 18 17 0.0 3.2 0.00 3.12 0.03 95 1015.5
20260510123138 18 160 0.0 0.0 0.00 3.12 0.03 95 1015.3
20260510120138 17 146 0.0 3.2 0.00 3.12 0.03 95 1014.8
20260510114638 17 284 0.0 0.0 0.00 3.15 0.03 95 1014.6
20260510113137 17 283 0.0 0.0 0.03 3.15 0.03 95 1014.4
20260510110137 17 287 0.0 0.0 0.03 3.15 0.03 95 1013.9
20260510103136 17 288 0.0 0.0 0.00 3.12 0.00 95 1013.5
20260510101636 17 287 0.0 0.0 0.00 3.12 0.00 95 1013.2
20260510100206 18 288 0.0 0.0 0.00 3.12 0.00 95 1013.2
20260510094635 18 349 0.0 0.0 0.00 3.12 0.00 95 1013.1
20260510093135 18 108 0.0 0.0 0.00 3.12 0.00 95 1012.9
20260510091635 18 108 0.0 0.0 0.00 3.12 0.00 95 1012.8
20260510090205 18 108 0.0 0.0 0.00 3.12 0.00 95 1012.5
20260510084705 18 108 0.0 0.0 0.00 3.12 0.00 95 1012.3
20260510083204 18 108 0.0 0.0 0.00 3.15 0.00 95 1012.3
20260510081704 18 108 0.0 0.0 0.00 3.17 0.00 95 1012.2
20260510074703 18 109 0.0 0.0 0.00 3.17 0.00 95 1011.9
20260510071703 18 109 0.0 0.0 0.00 3.20 0.00 95 1011.7
20260510070203 18 109 0.0 0.0 0.00 3.20 0.00 95 1011.9
20260510064703 19 108 0.0 0.0 0.00 3.20 0.00 95 1012.2
20260510063202 19 108 0.0 0.0 0.00 3.20 0.00 95 1012.3
20260510061702 19 108 0.0 0.0 0.00 3.20 0.00 95 1012.3
20260510060202 19 108 0.0 0.0 0.00 3.20 0.00 95 1012.5
20260510054702 19 108 0.0 0.0 0.00 3.20 0.00 95 1012.2
20260510053201 19 205 0.0 0.0 0.00 3.20 0.00 95 1012.0
20260510051701 19 205 0.0 0.0 0.00 3.20 0.00 95 1012.4
20260510044702 19 205 0.0 0.0 0.00 3.20 3.20 95 1012.8
20260510043201 19 205 0.0 0.0 0.00 3.20 3.20 95 1012.9
20260510041702 19 206 0.0 0.0 0.00 3.20 3.20 95 1013.0
20260510040201 19 205 0.0 0.0 0.00 3.20 3.20 95 1013.3
20260510034701 19 205 0.0 0.0 0.00 3.20 3.20 95 1013.4
20260510033201 19 206 0.0 0.0 0.00 3.20 3.20 95 1013.2
20260510031701 19 214 0.0 0.0 0.00 3.23 3.20 95 1012.5
20260510030202 19 312 0.0 0.0 0.00 3.23 3.20 95 1012.7
20260510024701 19 312 0.0 0.0 0.00 3.23 3.20 95 1012.8
20260510023202 19 110 0.0 0.0 0.00 3.25 3.20 95 1012.8
20260510021701 19 110 0.0 0.0 0.00 3.28 3.20 95 1012.8
20260510020201 19 110 0.0 0.0 0.03 3.33 3.20 95 1012.8
20260510014701 19 110 0.0 0.0 0.03 3.33 3.20 95 1012.9
20260510013200 19 110 0.0 0.0 0.03 3.33 3.20 95 1012.7
20260510011700 19 110 0.0 0.0 0.03 3.35 3.20 95 1013.1
20260510004659 20 110 0.0 0.0 0.00 3.35 3.17 95 1012.2
20260510003159 20 110 0.0 0.0 0.00 3.38 3.17 95 1011.9
20260510001659 20 111 0.0 0.0 0.03 3.38 3.17 95 1011.5
20260510000159 20 118 0.0 0.0 0.03 3.38 3.17 95 1011.5
20260509234658 20 118 0.0 0.0 0.05 3.38 3.17 95 1011.7
20260509233159 20 118 0.0 0.0 0.05 3.38 3.17 95 1011.9
20260509231659 20 166 0.0 0.0 0.03 3.35 3.15 95 1011.8
20260509224658 20 79 0.0 3.2 0.00 3.38 3.12 95 1011.7
20260509221658 20 79 0.0 0.0 0.00 3.43 3.12 96 1011.5
20260509220158 20 79 0.0 0.0 0.03 3.45 3.12 96 1011.6
20260509214658 20 79 0.0 0.0 0.03 3.51 3.12 96 1011.0
20260509211658 20 79 0.0 0.0 0.03 3.53 3.12 96 1011.2
20260509210158 20 7 0.0 0.0 0.00 3.51 3.10 95 1011.0
20260509204658 21 70 0.0 3.2 0.00 3.51 3.10 95 1010.7
20260509201658 21 30 0.0 0.0 0.00 3.51 3.10 95 1010.2
20260509193158 20 119 0.0 8.0 0.00 3.53 3.10 95 1009.1
20260509191658 20 178 4.8 14.5 0.00 3.66 3.10 95 1008.1
20260509190158 20 145 0.0 3.2 0.00 4.45 3.10 95 1009.2
20260509184657 20 113 4.8 4.8 0.00 4.47 3.10 95 1009.9
20260509183157 20 162 0.0 3.2 0.03 4.50 3.10 95 1010.7
20260509181657 20 152 0.0 0.0 0.03 4.52 3.10 95 1011.7
20260509180157 19 223 0.0 0.0 0.05 4.52 3.10 95 1012.3
20260509173156 18 144 0.0 0.0 0.18 4.50 3.07 95 1013.2
20260509171656 18 219 0.0 0.0 0.25 4.50 3.07 95 1013.4
20260509170155 18 196 0.0 3.2 0.36 4.47 3.05 95 1013.5
20260509163155 18 56 0.0 0.0 0.89 4.32 2.90 95 1014.2
20260509161655 18 276 0.0 3.2 1.65 4.24 2.82 95 1014.1